Regional Weather Roundup
Issued by NWS

Home | Current Version | Previous Version | Graphics & Text | Print | Product List | Glossary On
Versions: 1 2 3 4 5 6 7 8 9 10 11 12 13 14 15 16 17 18 19 20 21 22 23 24 25 26 27 28 29 30 31 32 33 34 35 36 37 38 39 40 41 42 43 44 45 46 47 48 49 50
764
ASUS43 KMPX 261210
RWRMN
WEATHER ROUNDUP FOR MINNESOTA
NATIONAL WEATHER SERVICE TWIN CITIES/CHANHASSEN MN
700 AM CDT SUN MAR 26 2017


NOTE: "FAIR" INDICATES FEW OR NO CLOUDS BELOW 12,000 FEET WITH NO
SIGNIFICANT WEATHER AND/OR OBSTRUCTIONS TO VISIBILITY. N/A MEANS
CURRENT SKY AND/OR WEATHER CONDITIONS ARE NOT AVAILABLE.

MNZ060>063-068>070-261300-
   Twin Cities Metro

CITY           SKY/WX    TMP DP  RH WIND       PRES   REMARKS
TWIN CITIES    CLOUDY    36  33  89 E7        29.95R
6HR MIN TEMP:  36; 6HR MAX TEMP:  38; 6HR PCP:  0.04;

ST PAUL        CLOUDY    36  35  96 NE5       29.96S
CRYSTAL        LGT RAIN  36  33  89 N3        29.94S
BLAINE         LGT RAIN  37  37 100 NE6         N/A
LAKEVILLE      CLOUDY    34  34 100 NE5       29.93S FOG     WCI  30
EDEN PRAIRIE   CLOUDY    37  34  89 NE6       29.93S
6HR MIN TEMP:  37; 6HR MAX TEMP:  39; 6HR PCP:  0.01;

SOUTH ST PAUL  CLOUDY    36  35  96 NE5       29.95R
LAKE ELMO      CLOUDY    36  34  93 NE5       29.96R
$$
MNZ001>005-007-008-013>017-022>024-027-028-261300-
   Northwest Minnesota

CITY           SKY/WX    TMP DP  RH WIND       PRES   REMARKS
BEMIDJI        CLOUDY    32  31  98 SE6       29.99R WCI  26
HALLOCK        CLOUDY    34  34 100 S10       29.95S WCI  26
ROSEAU         CLOUDY    34  30  86 S7        29.97S WCI  28
WARROAD        CLOUDY    32  28  86 S6        29.98S WCI  26
THIEF RVR FALL CLOUDY    33  30  88 S8        29.99S WCI  26
CROOKSTON      CLOUDY    34  34 100 S5        29.99S WCI  30
FOSSTON        CLOUDY    30  28  93 CALM      29.99R
DETROIT LAKES  CLOUDY    34  32  93 S3        29.99R
MOORHEAD       CLOUDY    34  34 100 CALM      30.00R FOG
PARK RAPIDS    CLOUDY    33  29  85 E5        29.98R WCI  29
MAHNOMEN       CLOUDY    32  29  90 CALM      29.98R
$$
MNZ006-009>011-018-025>026-261300-
   North Central Minnesota

CITY           SKY/WX    TMP DP  RH WIND       PRES   REMARKS
BAUDETTE       CLOUDY    32  29  88 S5        29.99S WCI  27
FLAG ISLAND    CLOUDY    30  28  93 S15       29.97F WCI  19
INTL FALLS     CLOUDY    31  28  89 CALM      30.01S
6HR MIN TEMP:  31; 6HR MAX TEMP:  31;

WASKISH        CLOUDY    32  30  93 CALM      30.00S
BIG FORK       CLOUDY    32  30  93 E3        30.00F FOG
LONGVILLE      CLOUDY    32  30  93 CALM      29.99S FOG
GRAND RAPIDS   CLOUDY    31  30  96 N3        30.01S
CRANE LAKE     CLOUDY    30  28  93 CALM      30.04F
ORR            CLOUDY    30  28  93 CALM      29.99S
COOK           CLOUDY    30  28  93 CALM      30.02S
WALKER         CLOUDY    31  31  99 E3        29.99S FOG
$$
MNZ012-019>021-037-261300-
   Northeast Minnesota

CITY           SKY/WX    TMP DP  RH WIND       PRES   REMARKS
DULUTH         FRZ DRZL  32  31  96 E8        29.98S WCI  25
6HR MIN TEMP:  31; 6HR MAX TEMP:  32; 6HR PCP: TRACE;

ELY            CLOUDY    30  28  93 CALM      30.01S
HIBBING        CLOUDY    31  30  96 N3        29.99F
EVELETH        CLOUDY    32  31  96 NE3       30.01S
DULUTH HARBOR  CLOUDY    34  32  93 NE12      30.02S FOG     WCI  25
TWO HARBORS    CLOUDY    36  30  80 NE6       29.99S HAZE
SILVER BAY     DRIZZLE   34  32  93 NE5       29.99S WCI  30
GRAND MARAIS     N/A     35  30  82 NE8       30.04F WCI  29
G MARAIS ARPRT MIX PCPN  28  23  80 NE8       30.00S WCI  20
$$
MNZ029>031-032-039>041-046>048-054>057-064-261300-
   West Central Minnesota

CITY           SKY/WX    TMP DP  RH WIND       PRES   REMARKS
FERGUS FALLS   CLOUDY    36  30  80 E3        30.01S
WHEATON        CLOUDY    34  34 100 CALM      30.00R FOG
MORRIS         CLOUDY    36  36 100 NE7       29.96S FOG
ALEXANDRIA     CLOUDY    34  30  85 NE6       29.97S WCI  29
ELBOW LAKE     CLOUDY    34  34 100 CALM      29.98S FOG
WADENA         CLOUDY    32  28  86 NE3       29.98R
GLENWOOD       CLOUDY    34  30  86 NE7       29.97R WCI  28
APPLETON       CLOUDY    37  36  93 CALM      29.96S FOG
BENSON         CLOUDY    39  32  75 E3        29.98S
ORTONVILLE     CLOUDY    36  34  93 N3        29.97R FOG
MADISON        CLOUDY    37  37 100 N5        29.96R FOG
WILLMAR        CLOUDY    37  34  87 NE3       29.97R
$$
MNZ033>034-036-042>043-049>051-058-059-261300-
   Central Minnesota

CITY           SKY/WX    TMP DP  RH WIND       PRES   REMARKS
ST CLOUD       CLOUDY    34  32  92 NE6       29.96S WCI  29
6HR MIN TEMP:  34; 6HR MAX TEMP:  36;

SAUK CENTRE    CLOUDY    33  30  90 N5        29.97R WCI  28
PAYNESVILLE    DRIZZLE   33  33 100 N6        29.97R WCI  28
AITKIN         CLOUDY    34  30  86 NE3       29.97S FOG
PINE RIVER     CLOUDY    32  32 100 CALM      30.02S
BRAINERD       CLOUDY    32  31  96 NE5       29.98S WCI  27
STAPLES        CLOUDY    34  28  80 CALM      29.98S
LONG PRAIRIE   CLOUDY    32  30  93 CALM      29.97S
LITTLE FALLS   MIX PCPN  32  30  93 CALM      29.98S
LITCHFIELD     DRIZZLE   36  34  93 NE6       29.96R
BUFFALO        CLOUDY    34  33  94 N6        29.96S WCI  29
MAPLE LAKE     LGT RAIN  35  34  98 NE3       29.97R
HUTCHINSON     DRIZZLE   37  37  99 NE8       29.96R
$$
MNZ037-044-045-052-053-261300-
   East Central Minnesota

CITY           SKY/WX    TMP DP  RH WIND       PRES   REMARKS
PRINCETON      LGT RAIN  34  34 100 N5        29.97S WCI  30
MORA           DRIZZLE   32  30  93 CALM      29.99S
CAMBRIDGE      MIX PCPN  36  32  87 NE3       29.95S
RUSH CITY      DRIZZLE   33  32  96 NE6       29.98S WCI  27
MOOSE LAKE     MIX PCPN  32  32 100 E5        29.97S WCI  27
CLOQUET        CLOUDY    32  30  93 NE5       29.98S WCI  27
MCGREGOR       CLOUDY    32  32 100 CALM      29.99S
$$
MNZ071>073-080-081-089-090-097-098-261300-
   Southwest Minnesota

CITY           SKY/WX    TMP DP  RH WIND       PRES   REMARKS
MONTEVIDEO     CLOUDY    36  36 100 E3        29.97S
GRANITE FALLS  CLOUDY    38  36  92 N3        29.97R
CANBY          CLOUDY    37  37  99 CALM      29.96R FOG
MARSHALL       MIX PCPN  36  35  96 N7        29.95R FOG
REDWOOD FALLS  LGT RAIN  37  35  92 N3        29.94R FOG
OLIVIA         LGT RAIN  36  36 100 NE5       29.94S
PIPESTONE      FOG       36  34  93 CALM      29.91S VSB 1/2
WINDOM         DRIZZLE   36  36 100 NE6       29.91S
JACKSON        MIX PCPN  34  34 100 NE6       29.91S VSB 1/4 WCI  29
TRACY          CLOUDY    37  36  99 N5        29.94R FOG
SLAYTON        FOG       34  34 100 N5        29.92S VSB 1/2 WCI  30
$$
MNZ065>067-074>077-082>085-091>093-261300-
   South Central Minnesota

CITY           SKY/WX    TMP DP  RH WIND       PRES   REMARKS
MANKATO        MIX PCPN  36  36 100 N6        29.94R FOG
NEW ULM        CLOUDY    36  36 100 NE7       29.93S
ST JAMES       CLOUDY    36  36 100 CALM      29.93S FOG
FAIRMONT       MIX PCPN  36  35  96 N7        29.92S FOG
GLENCOE        CLOUDY    37  37 100 N3        29.94R FOG
FARIBAULT      CLOUDY    36  34  93 NE6       29.92S FOG
OWATONNA       FOG       36  34  93 NE7       29.91S VSB 1
WASECA         CLOUDY    34  32  93 NE6       29.92S FOG     WCI  29
ALBERT LEA     DRZL/FOG  34  34 100 NE8       29.89S VSB 1/2 WCI  27
$$
MNZ078>079-086>088-094>096-261300-
   Southeast Minnesota

CITY           SKY/WX    TMP DP  RH WIND       PRES   REMARKS
ROCHESTER      CLOUDY    34  34 100 NE9       29.89S FOG     WCI  27
6HR MIN TEMP:  34; 6HR MAX TEMP:  35;

RED WING       CLOUDY    36  36 100 E5        29.93R FOG
STANTON        CLOUDY    36  34  94 NE5       29.92S FOG
DODGE CENTER   FOG       34  34 100 NE6       29.90R VSB 1/2 WCI  29
WINONA         DRIZZLE   36  36 100 CALM      29.93S
AUSTIN         CLOUDY    36  34  93 NE6       29.88S
PRESTON        CLOUDY    34  33  97 NE6       29.88F FOG     WCI  29
$$
ABBREVIATIONS USED IN REMARKS
   TC - TEMPERATURES IN CELSIUS
  WCI - WIND CHILL INDEX
   HX - HEAT INDEX
  VSB - VISIBILITY
$$




USA.gov is the U.S. government's official web portal to all federal, state and local government web resources and services.